EW9798 Weather Reports


Display with metric or nautical units.
time (UTC)temp
F
wind
direction
speed
MPH
gust
MPH
rain 1hr
in
rain 24hr
in
rain mn
in
humidity
%
barometer
mb
20260508114532 43 135 0.0 0.0 0.00 0.00 0.00 86 1018.1
20260508113030 44 135 0.0 0.0 0.00 0.00 0.00 84 1018.0
20260508111546 44 135 0.0 0.0 0.00 0.00 0.00 82 1017.8
20260508110038 45 135 0.0 0.0 0.00 0.00 0.00 79 1017.8
20260508104529 46 135 0.0 3.0 0.00 0.00 0.00 79 1017.8
20260508101534 46 163 2.0 6.0 0.00 0.00 0.00 77 1017.9
20260508100032 46 135 2.0 4.0 0.00 0.00 0.00 78 1017.8
20260508094533 46 136 1.0 3.0 0.00 0.00 0.00 76 1017.8
20260508093031 46 144 1.0 3.0 0.00 0.00 0.00 76 1017.7
20260508091604 46 135 1.0 3.0 0.00 0.00 0.00 75 1017.6
20260508090032 47 131 2.0 5.0 0.00 0.00 0.00 73 1017.6
20260508084532 49 140 1.0 4.0 0.00 0.00 0.00 70 1017.6
20260508083106 50 148 2.0 4.0 0.00 0.00 0.00 67 1017.6
20260508081530 49 114 4.0 7.0 0.00 0.00 0.00 68 1017.7
20260508080032 50 112 3.0 7.0 0.00 0.00 0.00 66 1017.6
20260508074532 50 117 5.0 8.0 0.00 0.00 0.00 66 1017.6
20260508073032 50 116 4.0 7.0 0.00 0.00 0.00 65 1017.6
20260508070036 49 120 4.0 6.0 0.00 0.00 0.00 64 1017.5
20260508064531 49 116 4.0 7.0 0.00 0.00 0.00 64 1017.5
20260508061537 49 115 4.0 6.0 0.00 0.00 0.00 63 1017.5
20260508060144 49 97 3.0 6.0 0.00 0.00 0.00 62 1017.5
20260508054532 49 113 3.0 6.0 0.00 0.00 0.00 62 1017.5
20260508053030 49 96 3.0 5.0 0.00 0.00 0.00 61 1017.6
20260508051647 50 111 1.0 5.0 0.00 0.00 0.00 59 1017.5
20260508050030 50 138 3.0 6.0 0.00 0.00 0.00 57 1017.5
20260508044606 51 117 3.0 6.0 0.00 0.00 0.00 55 1017.4
20260508043138 52 112 4.0 6.0 0.00 0.00 0.00 53 1017.3
20260508041530 53 112 3.0 5.0 0.00 0.00 0.00 50 1017.3
20260508030033 63 228 1.0 4.0 0.00 0.00 0.00 32 1016.6
20260508024648 64 263 1.0 5.0 0.00 0.00 0.00 29 1016.6
20260508023029 66 270 3.0 8.0 0.00 0.00 0.00 28 1016.5
20260508020029 68 294 5.0 12.0 0.00 0.00 0.00 25 1016.4
20260508014605 69 306 7.0 15.0 0.00 0.00 0.00 24 1016.3
20260508013048 71 304 7.0 17.0 0.00 0.00 0.00 23 1016.3
20260508011530 72 307 6.0 16.0 0.00 0.00 0.00 24 1016.4
20260508010031 70 314 6.0 15.0 0.00 0.00 0.00 23 1016.4
20260508004528 70 321 6.0 17.0 0.00 0.00 0.00 23 1016.4
20260508003029 70 323 7.0 15.0 0.00 0.00 0.00 22 1016.4
20260508000033 70 333 8.0 17.0 0.00 0.00 0.00 23 1016.3
20260507233032 70 316 9.0 16.0 0.00 0.00 0.00 27 1016.4
20260507231607 70 315 9.0 19.0 0.00 0.00 0.00 28 1016.6
20260507224539 70 307 10.0 19.0 0.00 0.00 0.00 30 1016.6
20260507223057 71 306 9.0 19.0 0.00 0.00 0.00 31 1016.8
20260507221532 71 314 8.0 19.0 0.00 0.00 0.00 32 1016.9
20260507220033 71 316 7.0 15.0 0.00 0.00 0.00 35 1017.1
20260507214530 70 334 7.0 14.0 0.00 0.00 0.00 37 1017.3
20260507213030 70 349 6.0 14.0 0.00 0.00 0.00 40 1017.5
20260507211540 70 344 7.0 16.0 0.00 0.00 0.00 41 1017.5
20260507210030 70 339 6.0 12.0 0.00 0.00 0.00 41 1017.7
20260507204530 70 351 6.0 13.0 0.00 0.00 0.00 41 1017.8
20260507203032 69 1 6.0 10.0 0.00 0.00 0.00 41 1018.0
20260507201538 69 338 6.0 11.0 0.00 0.00 0.00 42 1018.1
20260507200031 68 332 7.0 14.0 0.00 0.00 0.00 44 1018.3
20260507194529 67 343 6.0 12.0 0.00 0.00 0.00 46 1018.3
20260507193107 66 350 7.0 12.0 0.00 0.00 0.00 48 1018.5
20260507191530 65 345 6.0 13.0 0.00 0.00 0.00 51 1018.6
20260507190033 64 330 8.0 18.0 0.00 0.00 0.00 52 1018.8
20260507183041 63 351 7.0 15.0 0.00 0.00 0.00 57 1019.2
20260507180107 61 356 5.0 11.0 0.00 0.00 0.00 59 1019.4
20260507173029 59 359 5.0 10.0 0.00 0.00 0.00 64 1019.9
20260507171533 59 349 5.0 11.0 0.00 0.00 0.00 65 1020.1
20260507170031 58 355 5.0 9.0 0.00 0.00 0.00 67 1020.1
20260507164532 57 343 6.0 11.0 0.00 0.00 0.00 69 1020.2
20260507163037 57 11 6.0 12.0 0.00 0.00 0.00 70 1020.3
20260507161532 56 355 4.0 11.0 0.00 0.00 0.00 72 1020.3
20260507160107 55 337 5.0 13.0 0.00 0.00 0.00 73 1020.4
20260507151648 54 327 4.0 8.0 0.00 0.00 0.00 77 1020.6
20260507150038 53 336 5.0 14.0 0.00 0.00 0.00 79 1020.7
20260507144607 52 335 5.0 12.0 0.00 0.00 0.00 81 1020.6
20260507143106 51 357 4.0 11.0 0.00 0.00 0.00 83 1020.6
20260507141530 50 17 3.0 9.0 0.00 0.00 0.00 84 1020.6
20260507140032 50 36 5.0 11.0 0.00 0.00 0.00 85 1020.3
20260507134605 50 51 5.0 10.0 0.00 0.00 0.00 87 1020.2
20260507133028 49 60 5.0 9.0 0.00 0.00 0.00 88 1020.1
20260507131531 48 75 5.0 9.0 0.00 0.00 0.00 87 1020.0
20260507130031 49 98 3.0 7.0 0.00 0.00 0.00 86 1019.9
20260507124529 50 86 4.0 6.0 0.00 0.00 0.00 85 1019.9
20260507123107 51 44 4.0 7.0 0.00 0.00 0.00 85 1020.0
20260507120146 50 57 5.0 9.0 0.00 0.00 0.00 85 1019.9